Regional Weather Roundup
Issued by NWS Columbia, SC

Home | Current Version | Previous Version | Text Only | Print | Product List | Glossary On
Versions: 1 2 3 4 5 6 7 8 9 10 11 12 13 14 15 16 17 18 19 20 21 22 23 24 25 26 27
000
ASUS42 KCAE 271910
RWRCAE
REGIONAL WEATHER ROUNDUP
NATIONAL WEATHER SERVICE COLUMBIA SC
200 PM EST MON FEB 27 2017

NOTE: "FAIR" INDICATES FEW OR NO CLOUDS BELOW 12,000 FEET WITH NO
SIGNIFICANT WEATHER AND/OR OBSTRUCTIONS TO VISIBILITY.

NOT ALL STATIONS ARE QUALITY CONTROLLED BY THE NATIONAL
WEATHER SERVICE. USE DATA WITH CAUTION...ESPECIALLY
DEWPOINT OBSERVATIONS.

SCZ001>056-GAZ040-063>065-077-272000-
...UPSTATE SOUTH CAROLINA...

CITY           SKY/WX    TMP DP  RH WIND       PRES   REMARKS
ANDERSON       PTSUNNY   64  31  28 CALM      30.33F
LIBERTY        CLOUDY    60  31  32 S5        30.33F
SPARTANBURG    CLOUDY    63  28  27 SE7       30.34F
CLEMSON        PTSUNNY   63  30  28 NE3       30.35F
GREENVILLE     MOSUNNY   63  30  28 NE5       30.34F
GREENWOOD      SUNNY     67  40  37 S9G16     30.32F
GREER          CLOUDY    62  29  28 CALM      30.33F
ROCK HILL      SUNNY     64  27  24 VRB3      30.35F
CHESTER        CLEAR     66  28  24 SE12      30.35F
LAURENS        CLEAR     64  39  39 S12       30.33F


...CENTRAL SOUTH CAROLINA...

CITY           SKY/WX    TMP DP  RH WIND       PRES   REMARKS
COLUMBIA APT   PTSUNNY   70  40  33 E8        30.33F
COLUMBIA OWENS SUNNY     68  38  33 VRB6      30.36F
MCENTIRE ANGB  PTSUNNY   67  39  35 CALM      30.35F
ORANGEBURG     MOSUNNY   70  45  40 MISG      30.33F
SUMTER SHAW    CLOUDY    69  40  34 SE6       30.34F
AIKEN          FAIR      66  43  42 SE9G16    30.36F
BARNWELL       FAIR      72  50  46 E6G13     30.32F
MANNING        FAIR     N/A N/A N/A MISG      30.33F
CAMDEN         FAIR      66  34  30 CALM      30.37F
LANCASTER      CLOUDY    64  27  24 E8        30.36F
WINNSBORO      PTCLDY    66  32  28 E7        30.34F


...EASTERN AND COASTAL SOUTH CAROLINA...

CITY           SKY/WX    TMP DP  RH WIND       PRES   REMARKS
MYRTLE BEACH   MOSUNNY   66  48  52 E10       30.38F
N MYRTLE BCH   SUNNY     67  49  52 E9        30.36F
CONWAY         MOCLDY    66  46  48 S8        30.37S
MARION         FAIR      64  43  45 SE5       30.37F
HARTSVILLE     FAIR      66  37  34 SE7       30.38S
FLORENCE       PTSUNNY   67  44  43 S7        30.37F
DARLINGTON     MOSUNNY   65  41  41 SE6       30.39R
CHARLESTON APT PTSUNNY   73  51  46 SE15G21   30.33F
MOUNT PLEASANT FAIR      72  55  56 SE8G16    30.33F
WALTERBORO     MOCLDY    72  48  43 SE16      30.32F
BEAUFORT       PTSUNNY   73  57  57 SE14G21   30.31F


...EASTERN GEORGIA...

CITY           SKY/WX    TMP DP  RH WIND       PRES   REMARKS
AUGUSTA BUSH F MOSUNNY   72  47  40 CALM      30.30F
AUGUSTA DANIEL PTSUNNY   69  45  41 SE10      30.32F
THOMSON        CLOUDY    70  51  51 SE8       30.34F
WASHINGTON     FAIR      66  46  48 SE6       30.30F
CLAXTON        FAIR      75  57  53 E9G18     30.26F
SYLVANIA       MOCLDY   N/A N/A N/A SE8G18    30.29F
STATESBORO     PTSUNNY   75  56  52 S9        30.28F
SAVANNAH       PTSUNNY   76  52  43 SE17      30.28F


...SOUTHERN NORTH CAROLINA...

CITY           SKY/WX    TMP DP  RH WIND       PRES   REMARKS
CHARLOTTE      PTSUNNY   62  29  28 S12       30.37F
MONROE         MOSUNNY   63  28  26 S8        30.36F
WADESBORO      CLOUDY    63  26  24 S6        30.39F
ROCKINGHAM     PTCLDY    65  21  18 E9        30.38S
RUTHERFORDTON  CLOUDY    55  28  36 CALM      30.37F
ASHEVILLE      CLOUDY    54  19  25 S12       30.34F

$$




USA.gov is the U.S. government's official web portal to all federal, state and local government web resources and services.